Regional Weather Roundup
Issued by NWS Kansas City/Pleasant Hill, MO

Home | Current Version | Previous Version | Text Only | Print | Product List | Glossary On
Versions: 1 2 3 4 5 6 7 8 9 10 11 12 13 14 15 16 17 18 19 20 21 22 23 24 25 26 27 28 29 30 31 32 33 34 35 36 37 38 39 40 41 42 43 44 45 46 47 48 49 50
000
ASUS43 KEAX 260410
RWREAX

WEATHER ROUNDUP FOR EASTERN KANSAS AND NORTHWEST MISSOURI
NATIONAL WEATHER SERVICE KANSAS CITY/PLEASANT HILL MO
1100 PM CDT THU MAY 25 2017

KSZ040-057-103>105-MOZ028-029-037-043-260500-
...KANSAS CITY METROPOLITAN AREA...

CITY           SKY/WX    TMP DP  RH WIND       PRES   REMARKS
K.C. INTL      PTCLDY    67  56  67 E10       29.68R
K.C. DOWNTOWN  CLOUDY    67  57  70 E7        29.66R
LEES SUMMIT    PTCLDY    64  58  80 E8        29.68R
OLATHE - IXD   MOCLDY    66  57  72 E6        29.66R
OLATHE - OJC   CLOUDY    66  57  72 E7        29.67R
LAWRENCE       CLOUDY    67  58  72 NE7       29.65R

$$

MOZ001>008-011>017-020>025-030>033-038>040-044>046-053-054-260500-
...NORTHERN AND CENTRAL MISSOURI...

CITY           SKY/WX    TMP DP  RH WIND       PRES   REMARKS
ST. JOSEPH     CLOUDY    67  56  67 E6        29.68R
MOSBY          PTCLDY    64  54  68 CALM      29.68R
WARRENSBURG    PTCLDY    63  54  72 E6        29.68R
WHITEMAN AFB   PTCLDY    63  62  96 SE7       29.68R
CLINTON        PTCLDY    66  57  72 SE7       29.69R
SEDALIA        CLEAR     66  58  75 E8        29.72R
WARSAW         NOT AVBL
CHILLICOTHE      N/A     66  54  65 S3        29.72R
KIRKSVILLE     CLOUDY    64  54  69 E6        29.74R

$$

MOZ041-047>049-056>058-063>065-088>090-097-260500-
...EASTERN AND SOUTHERN MISSOURI...

CITY           SKY/WX    TMP DP  RH WIND       PRES   REMARKS
ST. LOUIS INTL PTCLDY    66  52  60 VRB3      29.78R
SPIRIT OF STL  CLEAR     59  56  89 CALM      29.77R
COLUMBIA       CLOUDY    66  54  65 E9        29.74R
JEFFERSON CITY CLEAR     68  54  60 SE6       29.73R
ROLLA          CLEAR     63  54  72 SE9       29.75R
OSAGE BEACH    CLEAR     66  54  65 SE3       29.73R
SPRINGFIELD    PTCLDY    69  56  62 S15       29.71R
BRANSON        CLOUDY    66  55  68 SE8       29.75R
JOPLIN         PTCLDY    72  58  61 SE10      29.65R
WEST PLAINS    CLEAR     65  55  70 S8        29.79R

$$

IAZ060-094-KSZ022-034>040-054-083-096-NEZ052-066-093-260500-
...KANSAS...SOUTHEAST NEBRASKA AND IOWA...

CITY           SKY/WX    TMP DP  RH WIND       PRES   REMARKS
TOPEKA         PTCLDY    66  59  78 CALM      29.65R
MANHATTAN      CLOUDY    70  60  70 E3        29.64R
EMPORIA        CLOUDY    67  59  75 E9        29.60R
CHANUTE        CLOUDY    70  59  68 SE10      29.61R
WICHITA        PTCLDY    72  62  71 SE13      29.52R
OMAHA          PTCLDY    67  54  63 SE9       29.65R
LINCOLN        CLOUDY    70  56  61 SE8       29.65R
FALLS CITY     CLOUDY    67  56  67 E9        29.64S
LAMONI         CLOUDY    63  52  67 E3        29.73R
DES MOINES     CLOUDY    66  52  60 S3        29.72R

$$




USA.gov is the U.S. government's official web portal to all federal, state and local government web resources and services.